| time (UTC) | temp C | wind direction | speed KPH | gust KPH | rain 1hr cm | rain 24hr cm | rain mn cm | humidity % | barometer mb |
| 20260505094213 | 19 | 194 | 19.3 | 25.7 | 0.00 | 0.00 | 0.00 | 93 | |
| 20260505093912 | 19 | 183 | 22.5 | 29.0 | 0.00 | 0.00 | 0.00 | 93 | |
| 20260505093611 | 19 | 173 | 20.9 | 33.8 | 0.00 | 0.00 | 0.00 | 93 | |
| 20260505093311 | 19 | 136 | 14.5 | 27.4 | 0.00 | 0.00 | 0.00 | 93 | |
| 20260505093011 | 19 | 176 | 24.1 | 29.0 | 0.00 | 0.00 | 0.00 | 93 | |
| 20260505092710 | 19 | 145 | 20.9 | 38.6 | 0.00 | 0.00 | 0.00 | 93 | |
| 20260505092409 | 19 | 149 | 17.7 | 29.0 | 0.00 | 0.00 | 0.00 | 93 | |
| 20260505092108 | 19 | 149 | 12.9 | 25.7 | 0.00 | 0.00 | 0.00 | 93 | |
| 20260505091807 | 18 | 144 | 19.3 | 27.4 | 0.00 | 0.00 | 0.00 | 93 | |
| 20260505091507 | 18 | 126 | 19.3 | 24.1 | 0.00 | 0.00 | 0.00 | 93 | |
| 20260505091206 | 18 | 170 | 14.5 | 27.4 | 0.00 | 0.00 | 0.00 | 93 | |
| 20260505090915 | 18 | 178 | 19.3 | 27.4 | 0.00 | 0.00 | 0.00 | 93 | |
| 20260505090614 | 19 | 149 | 12.9 | 17.7 | 0.00 | 0.00 | 0.00 | 93 | |
| 20260505090313 | 19 | 170 | 12.9 | 17.7 | 0.00 | 0.00 | 0.00 | 93 | |
| 20260505090012 | 19 | 166 | 14.5 | 17.7 | 0.00 | 0.00 | 0.00 | 93 | |
| 20260505090001 | 19 | 139 | 11.3 | 25.7 | 0.00 | 0.00 | 0.00 | 93 | |
| 20260505084207 | 19 | 171 | 6.4 | 17.7 | 0.00 | 0.00 | 0.00 | 93 | |
| 20260505083914 | 19 | 107 | 6.4 | 12.9 | 0.00 | 0.00 | 0.00 | 93 | |
| 20260505083610 | 19 | 122 | 12.9 | 17.7 | 0.00 | 0.00 | 0.00 | 93 | |
| 20260505083310 | 19 | 165 | 4.8 | 12.9 | 0.00 | 0.00 | 0.00 | 93 | |
| 20260505083008 | 19 | 211 | 6.4 | 12.9 | 0.00 | 0.00 | 0.00 | 93 | |
| 20260505082707 | 19 | 147 | 9.7 | 16.1 | 0.00 | 0.00 | 0.00 | 93 | |
| 20260505082407 | 19 | 122 | 8.0 | 19.3 | 0.00 | 0.00 | 0.00 | 93 | |
| 20260505082107 | 19 | 148 | 11.3 | 16.1 | 0.00 | 0.00 | 0.00 | 93 | |
| 20260505081807 | 19 | 146 | 8.0 | 14.5 | 0.00 | 0.00 | 0.00 | 93 | |
| 20260505081517 | 19 | 148 | 11.3 | 16.1 | 0.00 | 0.00 | 0.00 | 93 | |
| 20260505081214 | 19 | 178 | 9.7 | 12.9 | 0.00 | 0.00 | 0.00 | 93 | |
| 20260505080911 | 19 | 102 | 9.7 | 12.9 | 0.00 | 0.00 | 0.00 | 93 | |
| 20260505080610 | 19 | 166 | 3.2 | 12.9 | 0.00 | 0.00 | 0.00 | 93 | |
| 20260505080310 | 19 | 126 | 6.4 | 11.3 | 0.00 | 0.00 | 0.00 | 93 | |
| 20260505080008 | 19 | 200 | 11.3 | 16.1 | 0.00 | 0.00 | 0.00 | 93 | |
| 20260505074214 | 19 | 157 | 9.7 | 12.9 | 0.00 | 0.00 | 0.00 | 93 | |
| 20260505073911 | 19 | 207 | 14.5 | 22.5 | 0.00 | 0.00 | 0.00 | 93 | |
| 20260505073616 | 19 | 137 | 11.3 | 19.3 | 0.00 | 0.00 | 0.00 | 93 | |
| 20260505073316 | 19 | 159 | 9.7 | 17.7 | 0.00 | 0.00 | 0.00 | 93 | |
| 20260505073020 | 19 | 158 | 17.7 | 24.1 | 0.00 | 0.00 | 0.00 | 93 | |
| 20260505072715 | 19 | 138 | 6.4 | 14.5 | 0.00 | 0.00 | 0.00 | 93 | |
| 20260505072414 | 19 | 129 | 8.0 | 17.7 | 0.00 | 0.00 | 0.00 | 93 | |
| 20260505072113 | 19 | 132 | 14.5 | 25.7 | 0.00 | 0.00 | 0.00 | 93 | |
| 20260505071812 | 20 | 173 | 9.7 | 17.7 | 0.00 | 0.00 | 0.00 | 93 | |
| 20260505071512 | 20 | 154 | 11.3 | 24.1 | 0.00 | 0.00 | 0.00 | 92 | |
| 20260505071210 | 20 | 129 | 9.7 | 24.1 | 0.00 | 0.00 | 0.00 | 92 | |
| 20260505070906 | 20 | 154 | 11.3 | 19.3 | 0.00 | 0.00 | 0.00 | 92 | |
| 20260505070615 | 20 | 123 | 9.7 | 19.3 | 0.00 | 0.00 | 0.00 | 92 | |
| 20260505070321 | 20 | 159 | 12.9 | 19.3 | 0.00 | 0.00 | 0.00 | 92 | |
| 20260505070008 | 20 | 164 | 20.9 | 25.7 | 0.00 | 0.00 | 0.00 | 92 | |
| 20260505064512 | 20 | 179 | 19.3 | 24.1 | 0.00 | 0.00 | 0.00 | 91 | |
| 20260505064211 | 20 | 159 | 16.1 | 22.5 | 0.00 | 0.00 | 0.00 | 91 | |
| 20260505063907 | 20 | 169 | 16.1 | 25.7 | 0.00 | 0.00 | 0.00 | 91 | |
| 20260505063617 | 20 | 159 | 16.1 | 24.1 | 0.00 | 0.00 | 0.00 | 90 | |
| 20260505063310 | 20 | 149 | 12.9 | 27.4 | 0.00 | 0.00 | 0.00 | 90 | |
| 20260505063008 | 20 | 144 | 20.9 | 27.4 | 0.00 | 0.00 | 0.00 | 90 | |
| 20260505062708 | 20 | 144 | 19.3 | 29.0 | 0.00 | 0.00 | 0.00 | 90 | |
| 20260505062417 | 19 | 144 | 16.1 | 29.0 | 0.00 | 0.00 | 0.00 | 91 | |
| 20260505062118 | 19 | 164 | 16.1 | 24.1 | 0.00 | 0.00 | 0.00 | 92 | |
| 20260505061817 | 20 | 200 | 17.7 | 25.7 | 0.00 | 0.00 | 0.00 | 92 | |
| 20260505061508 | 20 | 136 | 6.4 | 17.7 | 0.00 | 0.00 | 0.00 | 92 | |
| 20260505061220 | 20 | 183 | 17.7 | 24.1 | 0.00 | 0.00 | 0.00 | 92 | |
| 20260505060912 | 20 | 157 | 16.1 | 24.1 | 0.00 | 0.00 | 0.00 | 92 | |
| 20260505060616 | 20 | 145 | 17.7 | 27.4 | 0.00 | 0.00 | 0.00 | 92 | |
| 20260505060315 | 20 | 129 | 12.9 | 19.3 | 0.00 | 0.00 | 0.00 | 92 | |
| 20260505060010 | 20 | 175 | 19.3 | 32.2 | 0.00 | 0.00 | 0.00 | 92 | |
| 20260505054215 | 20 | 153 | 19.3 | 25.7 | 0.00 | 0.00 | 0.00 | 92 | |
| 20260505053911 | 20 | 186 | 9.7 | 27.4 | 0.00 | 0.00 | 0.00 | 92 | |
| 20260505053610 | 20 | 197 | 12.9 | 24.1 | 0.00 | 0.00 | 0.00 | 92 | |
| 20260505053314 | 20 | 184 | 12.9 | 27.4 | 0.00 | 0.00 | 0.00 | 92 | |
| 20260505053007 | 20 | 145 | 14.5 | 24.1 | 0.00 | 0.00 | 0.00 | 93 | |
| 20260505052718 | 20 | 180 | 19.3 | 24.1 | 0.00 | 0.00 | 0.00 | 93 | |
| 20260505052416 | 20 | 150 | 17.7 | 24.1 | 0.00 | 0.00 | 0.00 | 93 | |
| 20260505052114 | 20 | 163 | 22.5 | 29.0 | 0.00 | 0.00 | 0.00 | 92 | |
| 20260505051810 | 20 | 119 | 14.5 | 29.0 | 0.00 | 0.00 | 0.00 | 92 | |
| 20260505051510 | 20 | 191 | 11.3 | 24.1 | 0.00 | 0.00 | 0.00 | 92 | |
| 20260505051210 | 20 | 184 | 17.7 | 27.4 | 0.00 | 0.00 | 0.00 | 92 | |
| 20260505050908 | 20 | 163 | 12.9 | 25.7 | 0.00 | 0.00 | 0.00 | 92 | |
| 20260505050617 | 20 | 144 | 14.5 | 27.4 | 0.00 | 0.00 | 0.00 | 92 | |
| 20260505050317 | 20 | 135 | 12.9 | 29.0 | 0.00 | 0.00 | 0.00 | 92 | |
| 20260505041516 | 20 | 189 | 16.1 | 29.0 | 0.00 | 0.00 | 0.00 | 92 | |
| 20260505041221 | 20 | 181 | 19.3 | 27.4 | 0.00 | 0.00 | 0.00 | 92 | |
| 20260505040915 | 20 | 210 | 24.1 | 29.0 | 0.00 | 0.00 | 0.00 | 92 | |
| 20260505040614 | 20 | 183 | 19.3 | 25.7 | 0.00 | 0.00 | 0.00 | 92 | |
| 20260505040312 | 20 | 231 | 17.7 | 24.1 | 0.00 | 0.00 | 0.00 | 92 | |
| 20260505040012 | 20 | 188 | 19.3 | 22.5 | 0.00 | 0.00 | 0.00 | 92 | |
| 20260505034212 | 20 | 106 | 6.4 | 16.1 | 0.00 | 0.00 | 0.00 | 92 | |
| 20260505033911 | 20 | 162 | 12.9 | 16.1 | 0.00 | 0.00 | 0.00 | 91 | |
| 20260505033610 | 20 | 122 | 6.4 | 14.5 | 0.00 | 0.00 | 0.00 | 91 | |
| 20260505033310 | 20 | 151 | 11.3 | 22.5 | 0.00 | 0.00 | 0.00 | 91 | |
| 20260505033008 | 20 | 226 | 14.5 | 19.3 | 0.00 | 0.00 | 0.00 | 91 | |
| 20260505032707 | 20 | 134 | 9.7 | 11.3 | 0.00 | 0.00 | 0.00 | 91 | |
| 20260505032412 | 20 | 185 | 8.0 | 14.5 | 0.00 | 0.00 | 0.00 | 91 | |
| 20260505032114 | 20 | 164 | 8.0 | 11.3 | 0.00 | 0.00 | 0.00 | 90 | |
| 20260505031809 | 20 | 180 | 6.4 | 14.5 | 0.00 | 0.00 | 0.00 | 90 | |
| 20260505031508 | 20 | 172 | 9.7 | 12.9 | 0.00 | 0.00 | 0.00 | 90 | |
| 20260505031207 | 20 | 126 | 8.0 | 16.1 | 0.00 | 0.00 | 0.00 | 90 | |
| 20260505030916 | 20 | 215 | 14.5 | 19.3 | 0.00 | 0.00 | 0.00 | 90 | |
| 20260505030616 | 20 | 174 | 9.7 | 17.7 | 0.00 | 0.00 | 0.00 | 90 | |
| 20260505030314 | 20 | 149 | 16.1 | 17.7 | 0.00 | 0.00 | 0.00 | 90 | |
| 20260505030008 | 20 | 198 | 16.1 | 17.7 | 0.00 | 0.00 | 0.00 | 90 | |
| 20260505024208 | 20 | 178 | 12.9 | 19.3 | 0.00 | 0.00 | 0.00 | 90 | |
| 20260505023915 | 20 | 168 | 12.9 | 16.1 | 0.00 | 0.00 | 0.00 | 90 | |
| 20260505023612 | 20 | 154 | 11.3 | 16.1 | 0.00 | 0.00 | 0.00 | 90 | |
| 20260505023307 | 19 | 207 | 6.4 | 19.3 | 0.00 | 0.00 | 0.00 | 90 | |
| 20260505023016 | 19 | 142 | 11.3 | 12.9 | 0.00 | 0.00 | 0.00 | 91 | |
| 20260505022713 | 19 | 183 | 8.0 | 16.1 | 0.00 | 0.00 | 0.00 | 91 | |
| 20260505022418 | 19 | 133 | 9.7 | 19.3 | 0.00 | 0.00 | 0.00 | 91 | |
| 20260505022110 | 19 | 132 | 8.0 | 14.5 | 0.00 | 0.00 | 0.00 | 90 | |
| 20260505021818 | 19 | 207 | 12.9 | 16.1 | 0.00 | 0.00 | 0.00 | 90 | |
| 20260505021513 | 19 | 165 | 11.3 | 14.5 | 0.00 | 0.00 | 0.00 | 90 | |
| 20260505021211 | 19 | 157 | 6.4 | 11.3 | 0.00 | 0.00 | 0.00 | 90 | |
| 20260505020907 | 19 | 176 | 8.0 | 12.9 | 0.00 | 0.00 | 0.00 | 90 | |
| 20260505020615 | 20 | 144 | 8.0 | 11.3 | 0.00 | 0.00 | 0.00 | 90 | |
| 20260505020312 | 20 | 183 | 11.3 | 17.7 | 0.00 | 0.00 | 0.00 | 90 | |
| 20260505020009 | 20 | 177 | 11.3 | 14.5 | 0.00 | 0.00 | 0.00 | 90 | |
| 20260505014211 | 20 | 182 | 6.4 | 12.9 | 0.00 | 0.00 | 0.00 | 89 | |
| 20260505013919 | 20 | 164 | 12.9 | 19.3 | 0.00 | 0.00 | 0.00 | 88 | |
| 20260505013617 | 20 | 162 | 9.7 | 11.3 | 0.00 | 0.00 | 0.00 | 88 | |
| 20260505013315 | 20 | 150 | 8.0 | 14.5 | 0.00 | 0.00 | 0.00 | 88 | |
| 20260505013011 | 20 | 187 | 9.7 | 12.9 | 0.00 | 0.00 | 0.00 | 88 | |
| 20260505012708 | 20 | 155 | 11.3 | 14.5 | 0.00 | 0.00 | 0.00 | 88 | |
| 20260505012417 | 20 | 160 | 11.3 | 12.9 | 0.00 | 0.00 | 0.00 | 88 | |
| 20260505012111 | 20 | 171 | 9.7 | 16.1 | 0.00 | 0.00 | 0.00 | 88 | |
| 20260505011819 | 20 | 171 | 19.3 | 22.5 | 0.00 | 0.00 | 0.00 | 88 | |
| 20260505011517 | 20 | 148 | 11.3 | 19.3 | 0.00 | 0.00 | 0.00 | 88 | |
| 20260505011215 | 20 | 161 | 16.1 | 19.3 | 0.00 | 0.00 | 0.00 | 88 | |
| 20260505010908 | 20 | 174 | 11.3 | 16.1 | 0.00 | 0.00 | 0.00 | 88 | |
| 20260505010618 | 20 | 186 | 8.0 | 16.1 | 0.00 | 0.00 | 0.00 | 87 | |
| 20260505010317 | 20 | 174 | 9.7 | 16.1 | 0.00 | 0.00 | 0.00 | 87 | |
| 20260505010012 | 20 | 210 | 11.3 | 14.5 | 0.00 | 0.00 | 0.00 | 87 | |
| 20260505010000 | 20 | 145 | 8.0 | 22.5 | 0.00 | 0.00 | 0.00 | 87 | |
| 20260505004209 | 20 | 120 | 12.9 | 16.1 | 0.00 | 0.00 | 0.00 | 88 | |
| 20260505003915 | 20 | 165 | 11.3 | 16.1 | 0.00 | 0.00 | 0.00 | 89 | |
| 20260505003612 | 20 | 158 | 12.9 | 19.3 | 0.00 | 0.00 | 0.00 | 89 | |
| 20260505003308 | 20 | 178 | 9.7 | 11.3 | 0.00 | 0.00 | 0.00 | 89 | |
| 20260505003016 | 20 | 205 | 6.4 | 11.3 | 0.00 | 0.00 | 0.00 | 89 | |
| 20260505002713 | 20 | 163 | 4.8 | 12.9 | 0.00 | 0.00 | 0.00 | 89 | |
| 20260505002410 | 20 | 100 | 8.0 | 17.7 | 0.00 | 0.00 | 0.00 | 89 | |
| 20260505002107 | 20 | 153 | 4.8 | 6.4 | 0.00 | 0.00 | 0.00 | 89 | |
| 20260505001815 | 20 | 225 | 9.7 | 14.5 | 0.00 | 0.00 | 0.00 | 89 | |
| 20260505001519 | 20 | 149 | 6.4 | 14.5 | 0.00 | 0.00 | 0.00 | 89 | |
| 20260505001217 | 20 | 165 | 8.0 | 11.3 | 0.00 | 0.00 | 0.00 | 89 | |
| 20260505000913 | 20 | 178 | 6.4 | 12.9 | 0.00 | 0.00 | 0.00 | 89 | |
| 20260505000616 | 20 | 178 | 9.7 | 16.1 | 0.00 | 0.00 | 0.00 | 89 | |
| 20260505000308 | 20 | 178 | 9.7 | 12.9 | 0.00 | 0.00 | 0.00 | 89 | |
| 20260505000014 | 20 | 164 | 11.3 | 14.5 | 0.00 | 0.00 | 0.00 | 89 | |
| 20260505000002 | 20 | 169 | 11.3 | 17.7 | 0.00 | 0.00 | 0.00 | 89 | |
| 20260504234215 | 20 | 162 | 8.0 | 11.3 | 0.00 | 0.00 | 0.00 | 89 | |
| 20260504233912 | 20 | 151 | 8.0 | 17.7 | 0.00 | 0.00 | 0.00 | 88 | |
| 20260504233617 | 20 | 164 | 9.7 | 14.5 | 0.00 | 0.00 | 0.00 | 88 | |
| 20260504233310 | 20 | 178 | 8.0 | 11.3 | 0.00 | 0.00 | 0.00 | 88 | |
| 20260504233017 | 20 | 203 | 11.3 | 14.5 | 0.00 | 0.00 | 0.00 | 88 | |
| 20260504232713 | 20 | 164 | 9.7 | 12.9 | 0.00 | 0.00 | 0.00 | 88 | |
| 20260504232411 | 20 | 202 | 12.9 | 17.7 | 0.00 | 0.00 | 0.00 | 89 | |
| 20260504232108 | 20 | 164 | 4.8 | 6.4 | 0.00 | 0.00 | 0.00 | 89 | |
| 20260504231815 | 20 | 168 | 4.8 | 11.3 | 0.00 | 0.00 | 0.00 | 89 | |
| 20260504231512 | 20 | 171 | 4.8 | 11.3 | 0.00 | 0.00 | 0.00 | 90 | |
| 20260504231209 | 20 | 184 | 9.7 | 11.3 | 0.00 | 0.00 | 0.00 | 90 | |
| 20260504230919 | 20 | 216 | 4.8 | 6.4 | 0.00 | 0.00 | 0.00 | 90 | |
| 20260504230617 | 20 | 104 | 1.6 | 6.4 | 0.00 | 0.00 | 0.00 | 90 | |
| 20260504230314 | 20 | 156 | 6.4 | 9.7 | 0.00 | 0.00 | 0.00 | 91 | |
| 20260504230013 | 20 | 142 | 9.7 | 19.3 | 0.00 | 0.00 | 0.00 | 91 | |
| 20260504224214 | 20 | 171 | 17.7 | 24.1 | 0.00 | 0.00 | 0.00 | 91 | |
| 20260504223912 | 20 | 167 | 16.1 | 17.7 | 0.00 | 0.00 | 0.00 | 91 | |
| 20260504223609 | 20 | 166 | 14.5 | 24.1 | 0.00 | 0.00 | 0.00 | 91 | |
| 20260504223308 | 20 | 194 | 11.3 | 25.7 | 0.00 | 0.00 | 0.00 | 91 | |
| 20260504223016 | 20 | 182 | 14.5 | 22.5 | 0.00 | 0.00 | 0.00 | 91 | |
| 20260504222715 | 20 | 188 | 17.7 | 24.1 | 0.00 | 0.00 | 0.00 | 91 | |
| 20260504222411 | 20 | 179 | 14.5 | 33.8 | 0.00 | 0.00 | 0.00 | 91 | |
| 20260504222119 | 20 | 197 | 14.5 | 32.2 | 0.00 | 0.00 | 0.00 | 91 | |
| 20260504221815 | 20 | 108 | 17.7 | 24.1 | 0.00 | 0.00 | 0.00 | 91 | |
| 20260504221513 | 20 | 200 | 16.1 | 32.2 | 0.00 | 0.00 | 0.00 | 91 | |
| 20260504221210 | 20 | 192 | 14.5 | 27.4 | 0.00 | 0.00 | 0.00 | 91 | |
| 20260504220918 | 20 | 171 | 14.5 | 25.7 | 0.00 | 0.00 | 0.00 | 92 | |
| 20260504220616 | 20 | 196 | 25.7 | 33.8 | 0.00 | 0.00 | 0.00 | 91 | |
| 20260504220313 | 20 | 199 | 20.9 | 27.4 | 0.00 | 0.00 | 0.00 | 92 | |
| 20260504220010 | 20 | 141 | 6.4 | 22.5 | 0.00 | 0.00 | 0.00 | 92 | |
| 20260504214218 | 20 | 204 | 14.5 | 17.7 | 0.00 | 0.00 | 0.00 | 91 | |
| 20260504213918 | 20 | 182 | 20.9 | 24.1 | 0.00 | 0.00 | 0.00 | 91 | |
| 20260504213615 | 20 | 203 | 17.7 | 19.3 | 0.00 | 0.00 | 0.00 | 91 | |
| 20260504213310 | 20 | 212 | 20.9 | 24.1 | 0.00 | 0.00 | 0.00 | 91 | |
| 20260504213019 | 20 | 175 | 12.9 | 19.3 | 0.00 | 0.00 | 0.00 | 91 | |
| 20260504212716 | 20 | 191 | 16.1 | 22.5 | 0.00 | 0.00 | 0.00 | 91 | |
| 20260504212414 | 20 | 159 | 12.9 | 22.5 | 0.00 | 0.00 | 0.00 | 91 | |
| 20260504212109 | 20 | 156 | 6.4 | 24.1 | 0.00 | 0.00 | 0.00 | 91 | |
| 20260504211818 | 20 | 194 | 14.5 | 22.5 | 0.00 | 0.00 | 0.00 | 91 | |
| 20260504211517 | 20 | 127 | 8.0 | 25.7 | 0.00 | 0.00 | 0.00 | 91 | |
| 20260504211214 | 20 | 214 | 11.3 | 22.5 | 0.00 | 0.00 | 0.00 | 91 | |
| 20260504210916 | 20 | 199 | 16.1 | 22.5 | 0.00 | 0.00 | 0.00 | 91 | |
| 20260504210612 | 20 | 187 | 16.1 | 19.3 | 0.00 | 0.00 | 0.00 | 91 | |
| 20260504210308 | 20 | 183 | 16.1 | 35.4 | 0.00 | 0.00 | 0.00 | 91 | |
| 20260504210018 | 20 | 165 | 14.5 | 32.2 | 0.00 | 0.00 | 0.00 | 92 | |
| 20260504210006 | 20 | 202 | 19.3 | 29.0 | 0.00 | 0.00 | 0.00 | 92 | |
| 20260504204219 | 20 | 174 | 16.1 | 24.1 | 0.00 | 0.00 | 0.00 | 92 | |
| 20260504203917 | 20 | 167 | 19.3 | 32.2 | 0.00 | 0.00 | 0.00 | 92 | |
| 20260504203612 | 20 | 193 | 24.1 | 29.0 | 0.00 | 0.00 | 0.00 | 92 | |
| 20260504203320 | 20 | 214 | 12.9 | 25.7 | 0.00 | 0.00 | 0.00 | 92 | |
| 20260504203017 | 20 | 178 | 27.4 | 33.8 | 0.00 | 0.00 | 0.00 | 92 | |
| 20260504202715 | 20 | 216 | 19.3 | 35.4 | 0.00 | 0.00 | 0.00 | 92 | |
| 20260504202411 | 21 | 196 | 14.5 | 19.3 | 0.00 | 0.00 | 0.00 | 92 | |
| 20260504202120 | 20 | 168 | 17.7 | 33.8 | 0.00 | 0.00 | 0.00 | 91 | |
| 20260504201816 | 20 | 182 | 20.9 | 27.4 | 0.00 | 0.00 | 0.00 | 91 | |
| 20260504201512 | 21 | 190 | 22.5 | 35.4 | 0.00 | 0.00 | 0.00 | 91 | |
| 20260504201220 | 21 | 170 | 19.3 | 25.7 | 0.00 | 0.00 | 0.00 | 91 | |
| 20260504200915 | 21 | 184 | 19.3 | 32.2 | 0.00 | 0.00 | 0.00 | 90 | |
| 20260504200617 | 21 | 220 | 17.7 | 29.0 | 0.00 | 0.00 | 0.00 | 90 | |
| 20260504200315 | 21 | 147 | 14.5 | 27.4 | 0.00 | 0.00 | 0.00 | 90 | |
| 20260504200013 | 20 | 207 | 22.5 | 29.0 | 0.00 | 0.00 | 0.00 | 90 | |
| 20260504200001 | 21 | 176 | 24.1 | 32.2 | 0.00 | 0.00 | 0.00 | 90 | |
| 20260504194209 | 21 | 208 | 19.3 | 27.4 | 0.00 | 0.00 | 0.00 | 89 | |
| 20260504193915 | 21 | 187 | 22.5 | 25.7 | 0.00 | 0.00 | 0.00 | 89 | |
| 20260504193611 | 21 | 239 | 14.5 | 27.4 | 0.00 | 0.00 | 0.00 | 89 | |
| 20260504193318 | 21 | 235 | 25.7 | 33.8 | 0.00 | 0.00 | 0.00 | 88 | |
| 20260504193017 | 21 | 177 | 16.1 | 24.1 | 0.00 | 0.00 | 0.00 | 88 | |
| 20260504192711 | 21 | 126 | 19.3 | 25.7 | 0.00 | 0.00 | 0.00 | 88 | |
| 20260504192409 | 21 | 183 | 27.4 | 38.6 | 0.00 | 0.00 | 0.00 | 87 | |
| 20260504192119 | 21 | 206 | 19.3 | 32.2 | 0.00 | 0.00 | 0.00 | 87 | |
| 20260504191817 | 21 | 180 | 17.7 | 27.4 | 0.00 | 0.00 | 0.00 | 86 | |
| 20260504191514 | 21 | 216 | 27.4 | 29.0 | 0.00 | 0.00 | 0.00 | 86 | |
| 20260504191213 | 21 | 221 | 19.3 | 35.4 | 0.00 | 0.00 | 0.00 | 86 | |
| 20260504190919 | 21 | 216 | 24.1 | 29.0 | 0.00 | 0.00 | 0.00 | 85 | |
| 20260504190616 | 21 | 185 | 24.1 | 29.0 | 0.00 | 0.00 | 0.00 | 85 | |
| 20260504190315 | 21 | 171 | 19.3 | 29.0 | 0.00 | 0.00 | 0.00 | 86 | |
| 20260504190012 | 21 | 197 | 22.5 | 27.4 | 0.00 | 0.00 | 0.00 | 86 | |
| 20260504190000 | 21 | 152 | 17.7 | 29.0 | 0.00 | 0.00 | 0.00 | 86 | |
| 20260504184220 | 21 | 205 | 16.1 | 32.2 | 0.00 | 0.00 | 0.00 | 85 | |
| 20260504183919 | 21 | 177 | 16.1 | 25.7 | 0.00 | 0.00 | 0.00 | 84 | |
| 20260504183619 | 21 | 257 | 27.4 | 37.0 | 0.00 | 0.00 | 0.00 | 83 | |
| 20260504183318 | 22 | 179 | 22.5 | 29.0 | 0.00 | 0.00 | 0.00 | 83 | |
| 20260504182713 | 21 | 210 | 24.1 | 38.6 | 0.00 | 0.00 | 0.00 | 83 | |
| 20260504182413 | 21 | 169 | 17.7 | 32.2 | 0.00 | 0.00 | 0.00 | 82 | |
| 20260504182113 | 21 | 226 | 16.1 | 24.1 | 0.00 | 0.00 | 0.00 | 82 | |
| 20260504181811 | 21 | 170 | 19.3 | 32.2 | 0.00 | 0.00 | 0.00 | 81 | |
| 20260504181511 | 21 | 200 | 27.4 | 35.4 | 0.00 | 0.00 | 0.00 | 81 | |
| 20260504181210 | 21 | 210 | 29.0 | 35.4 | 0.00 | 0.00 | 0.00 | 81 | |
| 20260504180911 | 21 | 180 | 19.3 | 25.7 | 0.00 | 0.00 | 0.00 | 81 | |
| 20260504180610 | 21 | 192 | 16.1 | 27.4 | 0.00 | 0.00 | 0.00 | 82 | |
| 20260504180309 | 22 | 183 | 22.5 | 27.4 | 0.00 | 0.00 | 0.00 | 81 | |
| 20260504180009 | 21 | 220 | 24.1 | 33.8 | 0.00 | 0.00 | 0.00 | 81 | |
| 20260504174213 | 21 | 193 | 27.4 | 37.0 | 0.00 | 0.00 | 0.00 | 81 | |
| 20260504173911 | 21 | 211 | 22.5 | 32.2 | 0.00 | 0.00 | 0.00 | 81 | |
| 20260504173610 | 22 | 202 | 17.7 | 32.2 | 0.00 | 0.00 | 0.00 | 80 | |
| 20260504173319 | 22 | 191 | 17.7 | 33.8 | 0.00 | 0.00 | 0.00 | 80 | |
| 20260504173015 | 22 | 169 | 22.5 | 29.0 | 0.00 | 0.00 | 0.00 | 78 | |
| 20260504172715 | 22 | 197 | 24.1 | 35.4 | 0.00 | 0.00 | 0.00 | 78 | |
| 20260504172414 | 22 | 204 | 24.1 | 35.4 | 0.00 | 0.00 | 0.00 | 77 | |
| 20260504172113 | 22 | 205 | 25.7 | 33.8 | 0.00 | 0.00 | 0.00 | 77 | |
| 20260504171814 | 22 | 197 | 20.9 | 35.4 | 0.00 | 0.00 | 0.00 | 76 | |
| 20260504171514 | 22 | 184 | 24.1 | 33.8 | 0.00 | 0.00 | 0.00 | 76 | |
| 20260504171213 | 22 | 187 | 19.3 | 35.4 | 0.00 | 0.00 | 0.00 | 76 | |
| 20260504170911 | 22 | 183 | 20.9 | 25.7 | 0.00 | 0.00 | 0.00 | 76 | |
| 20260504170621 | 22 | 179 | 14.5 | 32.2 | 0.00 | 0.00 | 0.00 | 74 | |
| 20260504170321 | 22 | 138 | 14.5 | 29.0 | 0.00 | 0.00 | 0.00 | 74 | |
| 20260504160314 | 22 | 163 | 22.5 | 33.8 | 0.00 | 0.00 | 0.00 | 66 | |
| 20260504150911 | 21 | 164 | 33.8 | 51.5 | 0.00 | 0.00 | 0.00 | 78 | |
| 20260504150611 | 21 | 146 | 37.0 | 46.7 | 0.00 | 0.00 | 0.00 | 81 | |
| 20260504150314 | 21 | 194 | 25.7 | 35.4 | 0.00 | 0.00 | 0.00 | 81 | |
| 20260504141219 | 21 | 209 | 24.1 | 37.0 | 0.00 | 0.00 | 0.00 | 85 | |
| 20260504140915 | 21 | 209 | 19.3 | 33.8 | 0.00 | 0.00 | 0.00 | 85 | |
| 20260504140613 | 21 | 211 | 20.9 | 29.0 | 0.00 | 0.00 | 0.00 | 84 | |
| 20260504140319 | 21 | 146 | 32.2 | 40.2 | 0.00 | 0.00 | 0.00 | 84 | |
| 20260504130611 | 20 | 220 | 19.3 | 33.8 | 0.00 | 0.00 | 0.00 | 82 | |
| 20260504130320 | 20 | 198 | 11.3 | 40.2 | 0.00 | 0.00 | 0.00 | 81 | |
| 20260504120318 | 20 | 169 | 11.3 | 27.4 | 0.00 | 0.00 | 0.00 | 83 | |
| 20260504110616 | 19 | 135 | 11.3 | 25.7 | 0.00 | 0.00 | 0.00 | 91 | |
| 20260504110316 | 18 | 158 | 20.9 | 27.4 | 0.00 | 0.00 | 0.00 | 92 | |
| 20260504100615 | 18 | 168 | 12.9 | 19.3 | 0.00 | 0.00 | 0.00 | 93 | |
| 20260504100315 | 18 | 150 | 8.0 | 12.9 | 0.00 | 0.00 | 0.00 | 93 |